Ardmore, OK

7:04 AM CDT on April 24, 2018 (GMT -0500)
Ardmore Municipal

Weather History for KADM - March, 2014

Change the Weather History Date:

Thursday, March 6, 2014

  Actual Average Record
Temperature  
Mean Temperature 40 °F -  
Max Temperature 51 °F 58 °F 86 °F (2009)
Min Temperature 30 °F 39 °F 19 °F (2015)
Degree Days  
Heating Degree Days 24    
Moisture  
Dew Point 36 °F    
Average Humidity 90    
Maximum Humidity 100    
Minimum Humidity 62    
Precipitation  
Precipitation 0.00 in - - ()
Sea Level Pressure  
Sea Level Pressure 30.17 in    
Wind  
Wind Speed 7 mph (North)    
Max Wind Speed 12 mph    
Max Gust Speed -    
Visibility 6 miles    
Events      
Averages and records for this station are not official NWS values.
T = Trace of Precipitation, MM = Missing Value Source: NWS Daily Summary

Daily Weather History Graph

Daily Weather History Graph

Search for Another Location

Airport or City:

Astronomy

Mar. 06, 2014 Rise Set
Actual Time 6:50 AM CST 6:28 PM CST
Civil Twilight 6:25 AM CST 6:53 PM CST
Nautical Twilight 5:56 AM CST 7:22 PM CST
Astronomical Twilight 5:27 AM CST 7:51 PM CST
Moon 10:14 AM CST (3/6) No Moon Set
Length of Visible Light 12h 28m
Length of Day
11h 38m
Waxing Crescent, 32% of the Moon is Illuminated
Mar 6
Waxing Crescent
Mar 8
First Quarter
Mar 16
Full
Mar 23
Last Quarter
Mar 30
New

Hourly Weather History & Observations

Time (CST) Temp. Windchill Dew Point Humidity Pressure Visibility Wind Dir Wind Speed Gust Speed Precip Events Conditions
12:15 AM 38.7 °F 33.6 °F 37.4 °F 95% 30.23 in 10.0 mi North 6.9 mph - N/A   Overcast
12:35 AM 38.7 °F 31.8 °F 37.6 °F 96% 30.23 in 7.0 mi North 10.4 mph - N/A   Overcast
12:55 AM 38.3 °F 33.9 °F 37.0 °F 95% 30.24 in 7.0 mi North 5.8 mph - N/A   Overcast
1:15 AM 38.3 °F 33.2 °F 37.0 °F 95% 30.23 in 7.0 mi North 6.9 mph - N/A   Overcast
1:35 AM 38.1 °F 31.2 °F 36.9 °F 95% 30.23 in 7.0 mi North 10.4 mph - N/A   Overcast
1:55 AM 37.9 °F 31.5 °F 36.9 °F 96% 30.23 in 7.0 mi North 9.2 mph - N/A   Overcast
2:15 AM 37.9 °F 31.5 °F 36.7 °F 95% 30.23 in 7.0 mi North 9.2 mph - N/A   Overcast
2:35 AM 37.8 °F 31.3 °F 36.9 °F 97% 30.22 in 5.0 mi North 9.2 mph - N/A   Overcast
2:55 AM 37.8 °F 31.8 °F 36.7 °F 96% 30.21 in 5.0 mi North 8.1 mph - N/A   Overcast
3:15 AM 37.6 °F 31.0 °F 36.7 °F 97% 30.21 in 5.0 mi North 9.2 mph - N/A   Overcast
3:40 AM 37.8 °F 31.8 °F 36.9 °F 97% 30.21 in 5.0 mi North 8.1 mph - N/A   Overcast
3:55 AM 37.8 °F 31.3 °F 36.9 °F 97% 30.21 in 5.0 mi NNW 9.2 mph - N/A   Overcast
4:15 AM 37.8 °F 31.3 °F 37.0 °F 97% 30.21 in 4.0 mi North 9.2 mph - N/A   Overcast
4:35 AM 37.8 °F 30.2 °F 36.9 °F 97% 30.20 in 4.0 mi NNW 11.5 mph - N/A   Overcast
4:55 AM 37.9 °F 32.1 °F 36.9 °F 96% 30.20 in 4.0 mi North 8.1 mph - N/A   Overcast
5:15 AM 37.9 °F 32.1 °F 37.0 °F 97% 30.20 in 4.0 mi NNW 8.1 mph - N/A   Overcast
5:35 AM 37.8 °F 30.2 °F 36.7 °F 96% 30.20 in 3.0 mi NNW 11.5 mph - N/A   Overcast
6:55 AM 37.4 °F 30.3 °F 35.6 °F 93% 30.22 in 3.0 mi NNW 10.4 mph - N/A   Overcast
7:55 AM 37.4 °F 30.8 °F 35.6 °F 93% 30.24 in 2.5 mi NNW 9.2 mph - N/A   Overcast
8:55 AM 37.4 °F 32.8 °F 35.6 °F 93% 30.26 in 3.0 mi NNW 5.8 mph - N/A   Overcast
9:35 AM 39.2 °F 35.0 °F 37.4 °F 93% 30.27 in 4.0 mi NNW 5.8 mph - N/A   Overcast
9:55 AM 41.0 °F 37.1 °F 37.4 °F 87% 30.27 in 4.0 mi WNW 5.8 mph - N/A   Overcast
10:55 AM 42.8 °F 39.3 °F 37.4 °F 81% 30.25 in 5.0 mi NNW 5.8 mph - N/A   Overcast
11:55 AM 46.4 °F 44.3 °F 37.4 °F 71% 30.23 in 10.0 mi NNE 4.6 mph - N/A   Mostly Cloudy
12:55 PM 44.6 °F - 37.4 °F 76% 30.20 in 10.0 mi Calm Calm - N/A   Overcast
1:55 PM 46.4 °F 43.5 °F 37.4 °F 71% 30.18 in 10.0 mi North 5.8 mph - N/A   Overcast
2:55 PM 50.0 °F - 39.2 °F 66% 30.14 in 10.0 mi Calm Calm - N/A   Scattered Clouds
3:55 PM 51.8 °F - 39.2 °F 62% 30.11 in 10.0 mi Calm Calm - N/A   Clear
4:55 PM 51.8 °F - 39.2 °F 62% 30.09 in 10.0 mi Calm Calm - N/A   Clear
5:55 PM 51.8 °F - 39.2 °F 62% 30.07 in 10.0 mi Calm Calm - N/A   Clear
6:55 PM 46.4 °F - 37.4 °F 71% 30.06 in 10.0 mi Calm Calm - N/A   Clear
7:55 PM 39.2 °F - 35.6 °F 87% 30.06 in 10.0 mi Calm Calm - N/A   Clear
8:55 PM 35.6 °F - 35.6 °F 100% 30.08 in 5.0 mi Calm Calm - N/A   Clear
9:55 PM 33.8 °F - 33.8 °F 100% 30.08 in 3.0 mi Calm Calm - N/A   Clear
10:35 PM 31.8 °F 28.5 °F 31.8 °F 100% 30.07 in 2.0 mi East 3.5 mph - N/A   Clear
10:55 PM 32.0 °F - 32.0 °F 100% 30.06 in 4.0 mi Calm Calm - N/A   Clear
11:15 PM 32.7 °F - 32.5 °F 99% 30.04 in 5.0 mi Calm Calm - N/A   Clear
11:35 PM 30.9 °F - 30.7 °F 99% 30.03 in 2.5 mi Calm Calm - N/A   Clear
11:55 PM 31.8 °F - 31.8 °F 100% 30.02 in 1.2 mi Calm Calm - N/A   Mist